Time,TemperatureF,DewpointF,PressureIn,WindDirection,WindDirectionDegrees,WindSpeedMPH,WindSpeedGustMPH,Humidity,HourlyPrecipIn,Conditions,Clouds,dailyrainin,SoftwareType,DateUTC
2013-10-14 00:22:00,49.0,-99.9,-100.00,North,-999,-999.0,-999.0,-999,0.00,,,0.00,,2013-10-14 06:22:00,
2013-10-14 00:32:00,49.0,-99.9,-100.00,North,-999,-999.0,-999.0,-999,0.00,,,0.00,,2013-10-14 06:32:00,
2013-10-14 00:42:00,49.0,-99.9,-100.00,North,-999,-999.0,-999.0,-999,0.00,,,0.00,,2013-10-14 06:42:00,
2013-10-14 01:22:00,48.0,-99.9,-100.00,North,-999,-999.0,-999.0,-999,0.05,,,0.05,,2013-10-14 07:22:00,
2013-10-14 01:32:00,48.0,-99.9,-100.00,North,-999,-999.0,-999.0,-999,0.05,,,0.05,,2013-10-14 07:32:00,
2013-10-14 01:42:00,48.0,-99.9,-100.00,North,-999,-999.0,-999.0,-999,0.05,,,0.05,,2013-10-14 07:42:00,
2013-10-14 02:22:00,47.0,-99.9,-100.00,North,-999,-999.0,-999.0,-999,0.02,,,0.07,,2013-10-14 08:22:00,
2013-10-14 02:32:00,47.0,-99.9,-100.00,North,-999,-999.0,-999.0,-999,0.02,,,0.07,,2013-10-14 08:32:00,
2013-10-14 02:42:00,47.0,-99.9,-100.00,North,-999,-999.0,-999.0,-999,0.02,,,0.07,,2013-10-14 08:42:00,
2013-10-14 03:22:00,48.0,-99.9,-100.00,North,-999,-999.0,-999.0,-999,0.00,,,0.07,,2013-10-14 09:22:00,
2013-10-14 03:33:00,48.0,-99.9,-100.00,North,-999,-999.0,-999.0,-999,0.00,,,0.07,,2013-10-14 09:33:00,
2013-10-14 03:43:00,48.0,-99.9,-100.00,North,-999,-999.0,-999.0,-999,0.00,,,0.07,,2013-10-14 09:43:00,
2013-10-14 04:23:00,49.0,-99.9,-100.00,North,-999,-999.0,-999.0,-999,0.02,,,0.09,,2013-10-14 10:23:00,
2013-10-14 04:32:00,49.0,-99.9,-100.00,North,-999,-999.0,-999.0,-999,0.02,,,0.09,,2013-10-14 10:32:00,
2013-10-14 04:43:00,49.0,-99.9,-100.00,North,-999,-999.0,-999.0,-999,0.02,,,0.09,,2013-10-14 10:43:00,
2013-10-14 05:22:00,44.0,-99.9,-100.00,North,-999,-999.0,-999.0,-999,0.13,,,0.22,,2013-10-14 11:22:00,
2013-10-14 05:33:00,44.0,-99.9,-100.00,North,-999,-999.0,-999.0,-999,0.13,,,0.22,,2013-10-14 11:33:00,
2013-10-14 05:42:00,44.0,-99.9,-100.00,North,-999,-999.0,-999.0,-999,0.13,,,0.22,,2013-10-14 11:42:00,
2013-10-14 06:23:00,45.0,-99.9,-100.00,North,-999,-999.0,-999.0,-999,0.09,,,0.31,,2013-10-14 12:23:00,
2013-10-14 07:22:00,45.0,-99.9,-100.00,North,-999,-999.0,-999.0,-999,0.11,,,0.42,,2013-10-14 13:22:00,
2013-10-14 07:32:00,45.0,-99.9,-100.00,North,-999,-999.0,-999.0,-999,0.11,,,0.42,,2013-10-14 13:32:00,
2013-10-14 07:42:00,45.0,-99.9,-100.00,North,-999,-999.0,-999.0,-999,0.11,,,0.42,,2013-10-14 13:42:00,
2013-10-14 08:22:00,45.0,-99.9,-100.00,North,-999,-999.0,-999.0,-999,0.07,,,0.49,,2013-10-14 14:22:00,
2013-10-14 08:32:00,45.0,-99.9,-100.00,North,-999,-999.0,-999.0,-999,0.07,,,0.49,,2013-10-14 14:32:00,
2013-10-14 08:42:00,45.0,-99.9,-100.00,North,-999,-999.0,-999.0,-999,0.07,,,0.49,,2013-10-14 14:42:00,
2013-10-14 09:22:00,44.0,-99.9,-100.00,North,-999,-999.0,-999.0,-999,0.17,,,0.66,,2013-10-14 15:22:00,
2013-10-14 09:33:00,44.0,-99.9,-100.00,North,-999,-999.0,-999.0,-999,0.17,,,0.66,,2013-10-14 15:33:00,
2013-10-14 09:44:00,44.0,-99.9,-100.00,North,-999,-999.0,-999.0,-999,0.17,,,0.66,,2013-10-14 15:44:00,
2013-10-14 10:23:00,44.0,-99.9,-100.00,North,-999,-999.0,-999.0,-999,0.10,,,0.76,,2013-10-14 16:23:00,
2013-10-14 10:33:00,44.0,-99.9,-100.00,North,-999,-999.0,-999.0,-999,0.10,,,0.76,,2013-10-14 16:33:00,
2013-10-14 10:43:00,44.0,-99.9,-100.00,North,-999,-999.0,-999.0,-999,0.10,,,0.76,,2013-10-14 16:43:00,
2013-10-14 11:23:00,45.0,-99.9,-100.00,North,-999,-999.0,-999.0,-999,0.09,,,0.85,,2013-10-14 17:23:00,
2013-10-14 11:34:00,45.0,-99.9,-100.00,North,-999,-999.0,-999.0,-999,0.09,,,0.85,,2013-10-14 17:34:00,
2013-10-14 11:42:00,45.0,-99.9,-100.00,North,-999,-999.0,-999.0,-999,0.09,,,0.85,,2013-10-14 17:42:00,
2013-10-14 12:22:00,45.0,-99.9,-100.00,North,-999,-999.0,-999.0,-999,0.11,,,0.96,,2013-10-14 18:22:00,
2013-10-14 12:32:00,45.0,-99.9,-100.00,North,-999,-999.0,-999.0,-999,0.11,,,0.96,,2013-10-14 18:32:00,
2013-10-14 12:43:00,45.0,-99.9,-100.00,North,-999,-999.0,-999.0,-999,0.11,,,0.96,,2013-10-14 18:43:00,
2013-10-14 13:23:00,46.0,-99.9,-100.00,North,-999,-999.0,-999.0,-999,0.07,,,1.03,,2013-10-14 19:23:00,
2013-10-14 13:32:00,46.0,-99.9,-100.00,North,-999,-999.0,-999.0,-999,0.07,,,1.03,,2013-10-14 19:32:00,
2013-10-14 13:42:00,46.0,-99.9,-100.00,North,-999,-999.0,-999.0,-999,0.07,,,1.03,,2013-10-14 19:42:00,
2013-10-14 14:22:00,44.0,-99.9,-100.00,North,-999,-999.0,-999.0,-999,0.05,,,1.08,,2013-10-14 20:22:00,
2013-10-14 15:22:00,43.0,-99.9,-100.00,North,-999,-999.0,-999.0,-999,0.09,,,1.17,,2013-10-14 21:22:00,
2013-10-14 15:34:00,43.0,-99.9,-100.00,North,-999,-999.0,-999.0,-999,0.09,,,1.17,,2013-10-14 21:34:00,
2013-10-14 15:44:00,43.0,-99.9,-100.00,North,-999,-999.0,-999.0,-999,0.09,,,1.17,,2013-10-14 21:44:00,
2013-10-14 16:24:00,43.0,-99.9,-100.00,North,-999,-999.0,-999.0,-999,0.05,,,1.22,,2013-10-14 22:24:00,
2013-10-14 16:33:00,43.0,-99.9,-100.00,North,-999,-999.0,-999.0,-999,0.05,,,1.22,,2013-10-14 22:33:00,
2013-10-14 16:44:00,43.0,-99.9,-100.00,North,-999,-999.0,-999.0,-999,0.05,,,1.22,,2013-10-14 22:44:00,
2013-10-14 18:22:00,43.0,-99.9,-100.00,North,-999,-999.0,-999.0,-999,-99.99,,,1.25,,2013-10-15 00:22:00,
2013-10-14 18:32:00,43.0,-99.9,-100.00,North,-999,-999.0,-999.0,-999,-99.99,,,1.25,,2013-10-15 00:32:00,
2013-10-14 18:43:00,43.0,-99.9,-100.00,North,-999,-999.0,-999.0,-999,-99.99,,,1.25,,2013-10-15 00:43:00,
2013-10-14 19:22:00,42.0,-99.9,-100.00,North,-999,-999.0,-999.0,-999,0.00,,,1.25,,2013-10-15 01:22:00,
2013-10-14 19:32:00,42.0,-99.9,-100.00,North,-999,-999.0,-999.0,-999,0.00,,,1.25,,2013-10-15 01:32:00,
2013-10-14 19:43:00,42.0,-99.9,-100.00,North,-999,-999.0,-999.0,-999,0.00,,,1.25,,2013-10-15 01:43:00,
2013-10-14 20:22:00,42.0,-99.9,-100.00,North,-999,-999.0,-999.0,-999,0.00,,,1.25,,2013-10-15 02:22:00,
2013-10-14 20:32:00,42.0,-99.9,-100.00,North,-999,-999.0,-999.0,-999,0.00,,,1.25,,2013-10-15 02:32:00,
2013-10-14 20:42:00,42.0,-99.9,-100.00,North,-999,-999.0,-999.0,-999,0.00,,,1.25,,2013-10-15 02:42:00,
2013-10-14 21:23:00,43.0,-99.9,-100.00,North,-999,-999.0,-999.0,-999,0.00,,,1.25,,2013-10-15 03:23:00,
2013-10-14 21:34:00,43.0,-99.9,-100.00,North,-999,-999.0,-999.0,-999,0.00,,,1.25,,2013-10-15 03:34:00,
2013-10-14 21:44:00,43.0,-99.9,-100.00,North,-999,-999.0,-999.0,-999,0.00,,,1.25,,2013-10-15 03:44:00,
2013-10-14 22:24:00,42.0,-99.9,-100.00,North,-999,-999.0,-999.0,-999,0.00,,,1.25,,2013-10-15 04:24:00,
2013-10-14 23:23:00,41.0,-99.9,-100.00,North,-999,-999.0,-999.0,-999,0.00,,,1.25,,2013-10-15 05:23:00,
2013-10-14 23:34:00,41.0,-99.9,-100.00,North,-999,-999.0,-999.0,-999,0.00,,,1.25,,2013-10-15 05:34:00,
2013-10-14 23:43:00,41.0,-99.9,-100.00,North,-999,-999.0,-999.0,-999,0.00,,,1.25,,2013-10-15 05:43:00,